Location: Newark
(44.3248°N, 23.7839°E)
Time: 18:00:02
(UTC+00:00)

NOAA 19 - Pass Details

Date: 25 April 2024
Orbit: 839 x 859 km, 99.0° (Epoch: 29 May)

Event Time Altitude Azimuth Distance (km) Brightness Sun altitude
Exits shadow 18:22:46 12° 141° (SE) 2,331 6.9 -10.6°
Maximum altitude 18:27:39 49° 69° (ENE) 1,080 5.5 -11.4°
Drops below altitude 10° 18:32:53 10° 356° (N) 2,466 8.2 -12.2°
Sets 18:35:19 0° 351° (N) 3,404 9.0 -12.5°
